Temp
12 12 12 12 11 11 11 10 10 9 9 9 9 9 9 9 9 10 10 10 10 10 10 10 11 10 10 10 9 9 9 9 10 10 10 10 10 9 9 8 7 7 7
10 10 10 10 10 10 9 9 10 9 9 9 8 9 9 9 9 9 10 10 11 11 10 10 10 10 9 9 9 9 9 9 9 9 9 8 8 8 8 7 6 6 6
11 10 9 9 10 9 10 9 10 9 9 10 10 10 10 10 10 11 11 11 11 11 10 9 9 9 9 9 9 9 8 8 8 8 8 8 7 7 6 7 7 7 6
10 10 10 10 10 10 11 11 11 11 10 10 10 10 10 9 9 9 9 10 9 9 9 9 9 9 9 9 8 8 8 8 8 8 8 7 6 5 5 6 6 5 5
11 10 10 10 10 10 10 10 10 10 10 9 9 9 9 9 7 7 8 8 8 9 9 9 8 8 7 7 6 6 6 7 7 5 5 5 4 5 6 6 5 5 5
11 11 10 10 10 10 10 9 9 9 9 9 8 8 8 8 5 5 5 6 7 8 8 7 7 7 6 6 6 6 6 5 5 5 4 4 4 5 5 5 5 4 4
11 11 11 10 10 10 9 9 8 9 8 8 8 7 7 6 5 4 4 5 6 6 6 6 6 6 6 5 5 5 5 5 5 5 5 5 5 5 5 5 4 4 4
12 11 11 10 9 9 9 9 8 8 8 7 7 6 6 5 4 3 3 4 5 5 5 5 5 5 5 4 4 4 4 4 5 5 4 4 4 4 4 4 4 4 3
11 11 10 10 9 9 8 8 7 7 7 6 6 6 5 5 4 3 2 3 4 4 5 5 4 4 4 3 3 2 2 3 3 4 4 4 4 4 4 3 3 2 2
10 9 9 9 8 8 7 6 6 6 6 6 6 5 5 5 4 3 2 2 3 4 3 3 2 2 3 2 2 2 2 3 3 4 3 3 3 3 3 3 3 3 3
9 8 8 8 7 6 6 6 6 5 5 5 5 5 5 4 3 2 1 2 2 2 3 2 2 2 2 2 2 2 2 3 2 1 0 1 1 2 3 3 3 3 2
8 8 7 7 6 6 5 5 5 5 5 5 5 5 4 4 3 2 1 1 1 1 1 1 1 2 2 2 2 2 2 2 2 2 2 2 2 2 3 3 3 3 2
8 7 7 6 5 5 5 5 5 4 4 4 4 4 4 3 2 2 1 1 1 1 1 1 2 1 1 1 1 2 2 1 1 1 1 2 1 0 1 0 0 1 1
8 7 6 6 5 5 4 4 4 4 4 3 3 3 2 2 2 1 0 0 0 1 1 0 1 1 1 1 1 1 0 0 -0 -1 -1 -1 -1 -1 -1 -1 -1 -1 -1
7 7 6 5 5 5 4 3 3 3 1 1 1 1 1 1 0 -0 0 0 0 0 0 0 0 0 0 -0 -0 -1 -1 -1 -1 -1 -1 -1 -1 -1 -1 -1 -1 -1 -1
7 6 6 5 4 4 4 4 2 1 1 -0 -2 -1 -1 -1 -1 -0 0 -0 -0 -0 -1 -0 -1 -1 -2 -2 -2 -2 -2 -1 -2 -2 -2 -2 -1 -1 -1 -1 -0 -1 -1
7 6 5 4 4 4 3 3 3 2 1 0 -1 -2 -1 -1 -1 -0 -1 -1 -1 -1 -1 -1 -1 -1 -1 -1 -1 -2 -2 -1 -2 -2 -2 -2 -2 -2 -1 -1 -1 -1 -1
6 5 5 4 4 3 3 3 2 2 2 2 0 -1 -1 -2 -1 -1 -1 -1 -2 -2 -1 -1 -1 -1 -1 -1 -1 -2 -2 -2 -2 -2 -2 -2 -2 -2 -1 -1 -1 -1 -1
4 4 4 3 3 2 2 2 2 2 1 1 -0 -1 -1 -2 -1 -1 -2 -2 -2 -2 -2 -2 -2 -1 -1 -1 -1 -1 -1 -2 -2 -2 -2 -2 -2 -2 -2 -2 -2 -1 -1
4 4 3 3 2 2 1 1 1 1 1 0 -0 -1 -2 -2 -2 -2 -2 -2 -2 -2 -2 -2 -2 -1 -1 -1 -1 -1 -1 -1 -1 -2 -2 -2 -2 -2 -2 -2 -1 -1 -1
3 1 2 2 2 2 1 1 1 1 0 0 -0 -1 -2 -2 -2 -2 -2 -2 -2 -2 -2 -2 -2 -1 -1 -1 -1 -1 -1 -1 -1 -1 -2 -2 -2 -2 -2 -2 -2 -2 -2
3 1 1 2 1 1 1 1 0 -0 0 0 -1 -2 -2 -2 -3 -3 -3 -2 -2 -2 -2 -2 -1 -1 -1 -1 -1 -1 -0 -1 -0 -1 -1 -1 -1 -2 -2 -2 -2 -2 -2
3 2 2 1 1 0 -0 0 0 0 0 -0 -1 -2 -2 -3 -3 -3 -3 -2 -2 -2 -2 -2 -2 -2 -1 -1 -1 -1 -1 -0 -1 -1 -1 -0 -1 -1 -1 -2 -2 -2 -2
2 2 2 2 1 0 0 0 0 -1 -2 -1 -1 -2 -3 -3 -4 -3 -3 -3 -3 -3 -3 -2 -2 -2 -2 -2 -1 -1 -1 -0 -1 -1 -1 -1 -0 -0 -1 -1 -2 -1 -1
2 2 2 1 0 0 -0 -0 -0 -1 -2 -2 -1 -2 -3 -3 -4 -4 -3 -3 -3 -3 -3 -3 -3 -2 -2 -2 -1 -1 -1 -1 -1 -1 -1 -1 -1 -0 -0 -0 -1 -1 -1
2 2 2 1 0 -0 -0 -1 -1 -2 -3 -2 -2 -2 -4 -4 -4 -4 -3 -3 -3 -3 -3 -3 -3 -3 -2 -2 -2 -2 -2 -1 -1 -1 -1 -1 -1 -0 -0 0 -0 -1 -1
Height
787 790 794 798 801 803 806 808 808 810 811 813 816 822 826 830 834 836 838 837 839 840 840 843 845 846 846 848 849 851 852 851 848 845 844 842 841 841 841 841 840 837 835
793 796 800 802 804 807 810 811 812 813 814 816 820 824 827 830 833 836 837 838 841 841 843 843 845 845 844 844 846 847 848 847 846 843 842 841 840 838 837 836 835 834 831
798 801 804 807 810 813 813 816 817 819 821 823 825 829 832 833 836 837 837 840 841 842 842 842 843 843 842 842 843 843 843 843 842 840 838 837 835 836 835 832 830 829 828
806 808 810 815 816 819 821 822 824 825 827 829 831 832 834 835 837 838 839 840 840 839 840 841 841 842 840 841 840 839 838 837 836 835 834 833 833 834 832 828 824 825 823
813 815 818 820 823 823 826 826 827 829 830 833 833 835 835 837 838 839 839 838 838 839 838 838 838 839 838 838 837 836 835 834 833 832 831 831 829 827 825 823 821 820 819
817 820 821 824 826 827 828 830 830 832 833 835 837 837 837 838 838 839 839 838 838 837 836 836 835 835 835 834 833 833 833 830 829 829 827 825 823 822 819 818 817 817 816
819 823 825 827 829 830 831 833 834 834 836 837 838 838 838 838 838 838 838 837 836 836 835 834 833 833 832 831 829 828 827 826 825 823 821 819 818 816 815 813 813 812 810
823 825 827 829 830 831 833 834 834 834 836 838 838 838 837 836 835 837 836 835 834 833 832 831 830 830 829 827 826 824 823 821 819 818 817 815 813 812 811 810 808 806 805
824 827 829 830 832 832 833 834 835 835 836 837 837 837 836 836 834 835 835 833 832 830 829 828 827 825 825 824 822 820 818 816 815 813 810 808 806 805 804 803 802 800 799
825 827 829 830 832 833 833 834 835 835 836 835 835 835 835 834 834 833 832 832 830 828 827 825 824 823 822 821 820 818 814 812 810 807 805 802 801 799 799 799 798 796 795
827 828 830 831 832 833 834 834 833 834 834 834 833 834 834 834 833 833 832 831 828 827 826 824 823 822 820 817 816 813 810 807 804 801 800 798 796 794 794 793 793 792 790
827 829 830 831 832 834 834 835 834 834 834 833 833 834 834 833 832 832 831 830 829 828 825 823 821 818 816 813 810 807 804 802 800 797 795 793 792 790 789 788 788 787 786
827 829 831 832 833 834 835 835 834 833 833 833 834 834 833 832 831 831 830 829 827 825 823 820 817 814 812 809 806 804 802 799 796 794 791 789 788 787 786 784 783 782 781
827 829 831 832 833 834 834 834 833 833 834 835 835 835 834 832 832 830 829 827 825 822 820 817 814 812 809 807 804 802 800 798 795 792 790 787 785 783 782 781 779 778 777
825 828 830 832 833 834 834 834 835 835 835 835 835 835 834 832 831 830 828 826 822 820 817 815 812 810 808 806 803 800 798 796 793 790 787 784 782 780 778 777 775 775 773
823 827 829 831 833 833 833 834 834 834 834 833 833 833 832 831 830 828 826 823 820 817 816 814 812 810 808 805 802 798 795 792 789 787 784 782 779 777 775 773 772 770 769
821 824 827 829 831 832 832 833 833 832 832 832 831 831 830 830 828 825 823 821 818 816 816 814 812 808 806 803 799 796 792 789 786 783 780 778 776 773 771 769 768 767 765
819 822 825 827 829 830 831 832 832 832 832 832 831 830 829 827 825 823 821 819 817 815 814 813 810 807 804 801 797 793 790 786 782 779 776 774 771 769 767 765 764 762 761
818 821 824 826 828 829 830 831 832 831 831 830 830 829 827 826 824 822 821 819 817 815 812 810 808 805 801 798 794 791 787 783 779 776 773 770 768 765 763 761 759 758 756
817 819 822 824 826 827 829 830 830 830 830 829 828 828 826 824 822 821 820 817 815 814 811 808 806 802 798 795 791 788 784 780 776 773 770 767 765 762 760 758 756 754 752
815 818 821 823 825 826 827 828 828 828 829 827 826 826 825 823 822 820 818 816 813 812 809 806 803 799 796 793 789 786 782 778 774 770 767 764 761 759 757 754 752 750 748
813 816 819 821 823 824 825 826 826 826 826 825 824 824 823 822 821 819 816 814 811 809 806 803 800 797 794 790 787 783 780 776 772 768 764 760 757 754 752 750 748 746 744
811 814 817 820 821 822 823 824 823 824 824 824 823 822 821 820 819 817 814 812 809 806 803 800 797 793 791 788 785 782 777 773 770 766 762 757 753 749 746 744 742 741 739
809 812 815 818 819 821 821 822 822 822 823 822 822 821 819 818 816 814 812 809 806 803 800 797 793 790 787 784 781 778 774 770 766 762 758 753 748 744 741 737 735 733 732
807 810 813 816 818 819 819 820 820 821 821 821 820 819 817 816 815 812 809 807 804 800 796 793 790 786 783 780 777 773 769 765 760 756 751 747 742 738 734 731 728 725 724
805 808 811 814 816 817 818 818 819 819 820 819 818 817 815 814 812 810 807 804 801 797 793 790 786 782 778 775 771 767 763 758 754 749 744 739 735 731 728 724 721 718 716
Wind_Speed
23 19 15 13 11 11 10 9 7 6 7 16 22 18 11 8 7 9 10 9 7 4 5 4 5 3 3 4 5 7 11 12 13 16 16 15 16 15 16 17 18 19 19
21 22 20 19 19 18 16 14 13 13 10 11 12 9 8 6 5 6 5 3 6 5 5 4 5 5 6 7 9 13 14 15 15 16 16 16 17 17 18 18 19 18 19
25 25 23 22 20 18 20 18 18 17 15 12 11 9 7 6 5 4 3 3 5 6 4 5 7 9 11 11 14 14 14 16 16 16 18 17 14 16 23 21 19 17 17
22 23 22 19 20 18 17 16 16 15 14 13 11 10 8 6 4 2 1 3 5 6 7 9 11 13 14 15 16 17 18 18 17 19 19 15 14 19 24 25 14 18 20
20 21 19 17 15 16 15 14 14 12 12 10 9 7 6 4 4 3 4 5 7 10 10 12 13 14 14 14 17 19 21 21 18 16 16 17 20 21 20 20 18 22 20
18 17 16 15 14 13 12 11 11 10 9 7 6 5 4 2 4 5 5 7 10 11 11 12 13 15 16 17 17 20 22 23 22 19 17 17 20 23 22 15 15 17 16
15 14 13 12 11 10 9 8 8 7 6 5 5 4 3 3 4 5 6 8 10 11 12 14 14 15 16 17 18 19 20 22 23 23 23 23 24 24 22 21 21 21 21
13 12 10 9 8 8 7 7 6 6 5 4 5 6 5 3 6 6 9 10 10 12 13 14 15 16 17 17 18 19 21 22 23 21 20 24 27 26 23 23 23 19 21
11 9 7 7 6 6 6 6 5 5 5 5 6 7 7 6 8 9 12 11 12 13 14 14 14 15 17 18 20 19 21 21 21 23 25 26 27 27 26 24 22 18 16
8 7 6 6 5 5 5 4 4 5 5 6 7 8 8 9 9 12 13 13 14 14 15 15 17 18 20 20 22 21 22 22 22 21 21 20 22 18 20 23 23 20 18
8 6 6 5 5 4 3 4 5 6 6 7 9 9 10 10 10 12 13 13 14 16 16 17 17 19 20 21 21 21 23 26 24 17 16 14 13 14 16 17 19 21 16
7 7 6 5 4 3 2 2 3 4 5 7 8 10 9 10 11 11 12 11 13 14 17 17 18 18 22 23 23 21 22 21 20 19 18 17 17 18 19 19 18 17 15
7 7 5 4 3 2 1 1 2 4 6 7 7 9 11 11 11 10 10 14 16 16 17 19 21 20 20 19 18 20 23 20 18 18 18 17 16 16 16 16 15 16 21
8 7 6 4 3 1 1 2 3 3 4 5 7 8 10 10 10 10 14 18 15 16 17 17 18 20 18 17 16 15 15 16 16 17 18 19 18 17 16 18 19 19 17
9 8 7 5 4 2 1 0 1 2 2 4 6 8 10 10 10 14 17 17 17 15 18 17 14 13 14 15 15 16 16 16 16 17 17 17 16 15 15 16 17 17 16
11 9 8 6 4 3 2 2 3 3 5 4 4 6 7 9 12 14 15 15 15 13 12 10 11 11 12 14 15 16 17 18 18 17 19 18 17 16 16 15 15 15 15
11 10 8 7 5 4 2 2 3 3 7 6 7 5 6 11 13 12 12 13 9 9 8 9 10 10 12 14 16 17 19 20 19 19 18 18 17 17 17 16 15 16 16
11 11 9 7 6 4 3 2 2 3 5 4 5 7 7 11 13 9 10 9 10 9 8 10 12 13 15 17 19 18 18 19 20 20 19 18 17 17 16 15 15 16 15
13 11 9 7 6 5 3 3 3 3 5 5 7 7 8 12 10 7 8 8 10 11 12 14 15 16 17 18 20 21 21 22 20 19 19 18 15 15 15 16 16 17 17
12 12 10 8 6 5 4 3 3 3 4 4 6 8 9 13 8 8 9 11 11 11 14 15 17 17 17 19 20 21 21 22 21 18 16 15 15 15 15 15 14 14 14
14 13 10 8 7 5 4 4 3 3 4 4 5 7 9 10 8 9 12 12 11 14 14 16 17 18 17 18 19 20 21 23 23 21 19 15 14 16 14 14 14 15 15
15 14 11 9 7 5 4 3 3 3 5 5 6 7 8 7 8 9 12 13 14 14 15 16 16 17 17 18 20 20 20 22 22 23 22 21 19 16 16 17 16 17 16
15 14 11 9 7 6 4 4 3 3 4 5 6 7 8 9 10 11 13 14 16 15 16 16 17 18 19 20 19 20 23 22 21 25 24 25 25 24 21 19 18 19 17
16 14 12 9 8 6 4 4 3 3 4 5 5 6 8 10 12 13 14 15 17 18 16 17 17 19 20 21 22 22 22 20 28 25 25 26 24 27 25 22 22 22 22
16 13 11 9 8 6 5 4 3 3 4 6 6 6 9 11 12 14 15 17 19 21 20 19 18 20 21 22 23 22 23 28 26 27 28 27 27 25 26 27 25 24 23
15 13 10 9 7 6 5 4 3 3 5 6 6 7 9 12 14 15 17 17 20 22 23 21 21 21 22 23 23 25 26 26 27 28 28 27 26 25 24 23 25 25 25
Wind_Direction
106 105 102 101 104 111 113 107 120 143 164 185 184 185 172 180 212 246 254 262 260 251 251 237 244 250 264 273 287 285 274 272 276 283 284 286 283 285 283 288 292 292 290
96 97 92 93 95 91 90 90 94 96 109 139 154 171 193 213 231 209 202 209 225 228 236 244 260 260 256 264 259 262 264 270 273 278 280 287 289 292 290 288 289 290 291
100 97 90 88 86 88 87 85 86 89 94 103 110 114 124 138 152 158 181 223 242 255 268 269 275 279 274 269 266 265 267 273 277 276 277 277 280 301 307 291 284 289 305
93 93 92 91 92 91 92 92 92 96 98 100 102 107 110 107 101 93 252 264 266 270 271 273 284 286 287 280 276 279 281 277 270 271 276 281 285 283 288 281 297 300 289
98 92 95 94 92 91 89 88 89 88 90 93 93 89 88 90 57 24 323 305 294 287 287 285 280 277 274 281 286 287 288 287 284 290 283 280 275 275 274 288 289 294 291
102 99 95 95 91 87 86 83 82 81 80 78 78 73 64 73 20 4 332 311 293 290 295 292 294 295 288 284 282 280 277 279 278 272 262 261 270 275 274 277 280 283 283
106 107 106 103 99 94 93 98 93 84 77 70 62 50 28 42 14 9 339 315 305 291 293 295 294 290 295 289 286 284 280 274 271 273 275 276 281 287 296 293 279 266 265
112 107 103 101 99 95 92 86 75 69 53 33 15 3 354 354 342 353 337 318 307 299 296 296 296 293 292 296 294 287 286 286 286 286 281 281 279 276 273 272 277 285 288
116 109 101 95 94 91 83 70 54 35 16 357 353 352 353 346 359 348 337 322 310 307 306 305 315 309 303 301 306 301 289 285 282 278 279 277 277 277 277 278 274 272 280
114 106 97 91 86 78 67 52 30 10 358 350 348 343 341 337 335 340 340 328 318 317 315 311 312 306 304 302 302 298 294 291 291 292 292 281 280 273 278 276 277 276 265
130 122 115 108 100 80 53 23 11 5 354 345 346 339 331 329 328 333 334 327 324 318 313 313 306 303 301 299 297 292 289 292 295 301 305 302 303 272 272 272 271 269 270
139 135 130 119 102 76 41 19 11 4 353 355 344 332 326 329 332 329 333 331 319 313 306 306 301 301 302 301 300 297 297 301 304 298 285 280 274 273 274 274 276 277 271
153 149 145 133 112 84 34 10 16 11 8 352 335 325 326 332 329 330 336 326 319 311 302 299 306 309 311 310 307 301 303 304 301 299 296 297 298 294 290 290 282 282 280
167 166 162 158 143 122 70 37 18 2 349 333 330 324 324 321 324 335 323 320 311 308 308 312 312 309 311 311 319 318 311 305 300 297 296 293 290 282 282 280 275 272 271
174 175 171 171 177 170 137 86 11 27 347 322 325 318 319 320 316 317 316 313 318 321 319 317 316 323 327 325 323 320 318 314 307 300 293 292 290 284 274 276 272 272 261
176 181 182 178 182 181 194 232 283 342 337 318 310 304 309 309 314 316 318 324 322 324 324 329 331 328 323 315 312 308 306 301 295 293 293 293 289 284 283 280 275 265 267
179 179 178 181 185 188 195 253 302 308 323 330 346 335 320 319 319 324 325 329 334 334 328 321 308 310 315 313 310 309 307 310 309 303 286 282 281 281 279 277 275 273 268
177 172 177 179 181 187 197 246 289 317 319 318 324 335 324 327 326 328 334 336 340 340 316 315 319 323 324 320 319 318 321 326 319 314 307 300 287 280 278 273 272 269 269
169 171 177 176 177 185 190 233 255 273 294 309 322 319 328 331 325 327 335 330 324 323 319 320 322 323 324 328 326 321 324 318 321 320 317 312 304 290 281 278 271 272 271
172 171 173 174 179 183 199 232 256 273 287 304 318 319 328 336 332 332 326 321 326 314 323 320 319 325 333 335 335 333 334 334 321 319 318 311 308 298 289 282 278 275 271
168 170 174 174 184 193 205 236 253 274 282 301 318 318 328 328 320 318 318 318 322 322 322 324 325 331 337 336 339 331 331 334 334 327 321 310 305 297 290 285 281 279 276
167 167 175 180 180 196 211 235 244 268 279 303 322 322 331 328 318 316 318 320 321 322 327 331 327 330 331 333 335 335 331 327 331 331 325 323 310 292 286 283 277 276 272
168 168 172 180 183 195 211 230 231 264 286 301 319 324 331 327 319 317 320 321 328 325 325 331 330 329 325 328 327 327 322 317 326 327 322 324 320 311 295 275 272 272 266
167 169 174 179 185 197 212 231 233 247 283 293 313 326 330 327 321 319 320 323 327 327 323 323 322 320 319 321 321 320 318 309 315 320 317 316 305 310 303 287 275 265 261
167 171 175 179 185 200 204 224 225 250 280 293 301 326 326 328 325 324 326 326 328 327 325 324 320 320 319 320 316 315 311 312 319 319 314 307 300 294 289 286 285 273 265
168 171 173 178 187 198 205 216 222 251 275 290 300 323 326 329 327 328 328 329 329 329 327 325 323 324 323 322 321 320 321 323 322 320 319 314 307 297 293 285 282 277 271